TimeEDT,TemperatureF,Dew PointF,Humidity,Sea Level PressureIn,VisibilityMPH,Wind Direction,Wind SpeedMPH,Gust SpeedMPH,PrecipitationIn,Events,Conditions,WindDirDegrees,DateUTC
12:15 AM,68.0,62.6,83,30.08,10.0,South,4.6,-,N/A,,Clear,190,2013-08-22 04:15:00
12:35 AM,68.0,64.4,88,30.08,10.0,SSW,3.5,-,N/A,,Mostly Cloudy,200,2013-08-22 04:35:00
12:55 AM,68.0,64.4,88,30.07,10.0,SW,5.8,-,N/A,,Mostly Cloudy,220,2013-08-22 04:55:00
1:15 AM,68.0,64.4,88,30.07,10.0,South,4.6,-,N/A,,Scattered Clouds,180,2013-08-22 05:15:00
1:35 AM,68.0,64.4,88,30.08,10.0,South,5.8,-,N/A,,Scattered Clouds,190,2013-08-22 05:35:00
1:55 AM,68.0,64.4,88,30.08,10.0,South,4.6,-,N/A,,Mostly Cloudy,190,2013-08-22 05:55:00
2:15 AM,69.8,64.4,83,30.08,10.0,SSW,4.6,-,N/A,,Overcast,210,2013-08-22 06:15:00
2:35 AM,69.8,64.4,83,30.09,10.0,Calm,Calm,-,N/A,,Mostly Cloudy,0,2013-08-22 06:35:00
2:55 AM,69.8,66.2,88,30.09,10.0,Calm,Calm,-,N/A,,Overcast,0,2013-08-22 06:55:00
3:15 AM,69.8,66.2,88,30.08,10.0,Calm,Calm,-,N/A,,Overcast,0,2013-08-22 07:15:00
3:35 AM,69.8,64.4,83,30.08,10.0,SW,3.5,-,N/A,,Overcast,220,2013-08-22 07:35:00
3:55 AM,69.8,66.2,88,30.08,10.0,SW,3.5,-,N/A,,Overcast,230,2013-08-22 07:55:00
4:15 AM,69.8,66.2,88,30.10,10.0,NNW,3.5,-,N/A,,Overcast,340,2013-08-22 08:15:00
4:35 AM,69.8,66.2,88,30.11,7.0,NNW,8.1,-,N/A,,Overcast,340,2013-08-22 08:35:00
4:55 AM,69.8,66.2,88,30.11,10.0,NNW,3.5,-,N/A,,Overcast,330,2013-08-22 08:55:00
5:15 AM,69.8,66.2,88,30.09,10.0,Calm,Calm,-,N/A,,Overcast,0,2013-08-22 09:15:00
5:35 AM,68.0,66.2,94,30.07,5.0,SSW,6.9,-,0.01,Rain,Light Rain,200,2013-08-22 09:35:00
5:55 AM,68.0,66.2,94,30.07,5.0,Calm,Calm,-,0.02,Rain,Rain,0,2013-08-22 09:55:00
6:15 AM,68.0,66.2,94,30.08,4.0,SW,4.6,-,N/A,,Clear,220,2013-08-22 10:15:00
6:35 AM,68.0,66.2,94,30.07,5.0,SW,5.8,-,N/A,,Scattered Clouds,230,2013-08-22 10:35:00
6:55 AM,68.0,66.2,94,30.07,5.0,SW,8.1,-,N/A,,Mostly Cloudy,230,2013-08-22 10:55:00
7:15 AM,68.0,66.2,94,30.07,3.0,SW,6.9,-,N/A,,Overcast,230,2013-08-22 11:15:00
7:35 AM,68.0,66.2,94,30.07,3.0,SW,6.9,-,N/A,,Scattered Clouds,220,2013-08-22 11:35:00
7:55 AM,68.0,66.2,94,30.07,4.0,South,4.6,-,N/A,,Scattered Clouds,180,2013-08-22 11:55:00
8:15 AM,68.0,66.2,94,30.08,4.0,Calm,Calm,-,N/A,,Clear,0,2013-08-22 12:15:00
8:35 AM,68.0,66.2,94,30.09,3.0,Calm,Calm,-,N/A,,Scattered Clouds,0,2013-08-22 12:35:00
8:55 AM,69.8,68.0,94,30.10,2.5,Calm,Calm,-,N/A,,Scattered Clouds,0,2013-08-22 12:55:00
9:15 AM,69.8,68.0,94,30.10,5.0,Calm,Calm,-,N/A,,Clear,0,2013-08-22 13:15:00
9:35 AM,69.8,68.0,94,30.10,5.0,Calm,Calm,-,N/A,,Clear,0,2013-08-22 13:35:00
9:55 AM,71.6,68.0,88,30.10,7.0,Calm,Calm,-,N/A,,Scattered Clouds,0,2013-08-22 13:55:00
10:15 AM,71.6,68.0,88,30.10,7.0,SW,3.5,-,N/A,,Mostly Cloudy,220,2013-08-22 14:15:00
10:35 AM,71.6,68.0,88,30.11,10.0,SW,4.6,-,N/A,,Mostly Cloudy,230,2013-08-22 14:35:00
10:55 AM,73.4,68.0,83,30.11,10.0,WSW,8.1,-,N/A,,Scattered Clouds,250,2013-08-22 14:55:00
11:15 AM,73.4,68.0,83,30.11,10.0,West,5.8,-,N/A,,Scattered Clouds,270,2013-08-22 15:15:00
11:35 AM,77.0,69.8,78,30.11,10.0,West,6.9,-,N/A,,Mostly Cloudy,270,2013-08-22 15:35:00
11:55 AM,77.0,68.0,74,30.11,10.0,West,8.1,-,N/A,,Mostly Cloudy,280,2013-08-22 15:55:00
12:15 PM,75.2,68.0,78,30.11,10.0,West,6.9,-,N/A,,Mostly Cloudy,280,2013-08-22 16:15:00
12:35 PM,75.2,68.0,78,30.11,10.0,West,6.9,-,N/A,,Mostly Cloudy,280,2013-08-22 16:35:00
12:55 PM,73.4,66.2,78,30.11,10.0,West,5.8,-,N/A,,Overcast,280,2013-08-22 16:55:00
1:15 PM,75.2,68.0,78,30.11,10.0,West,4.6,-,N/A,,Overcast,270,2013-08-22 17:15:00
1:35 PM,75.2,68.0,78,30.13,10.0,NW,5.8,-,N/A,,Overcast,320,2013-08-22 17:35:00
1:55 PM,71.6,68.0,88,30.14,7.0,WNW,5.8,-,N/A,Rain,Light Rain,300,2013-08-22 17:55:00
2:15 PM,71.6,68.0,88,30.14,7.0,NNW,8.1,-,N/A,Rain,Light Rain,330,2013-08-22 18:15:00
2:35 PM,71.6,68.0,88,30.14,7.0,NNW,6.9,-,N/A,Rain,Light Rain,330,2013-08-22 18:35:00
2:55 PM,69.8,66.2,88,30.14,7.0,NNW,4.6,-,0.01,Rain,Rain,330,2013-08-22 18:55:00
3:15 PM,69.8,68.0,94,30.13,7.0,NNW,8.1,-,0.01,Rain,Light Rain,340,2013-08-22 19:15:00
3:35 PM,69.8,68.0,94,30.12,10.0,North,8.1,-,0.02,Rain,Rain,350,2013-08-22 19:35:00
3:55 PM,69.8,68.0,94,30.12,10.0,North,6.9,-,0.02,Rain,Light Rain,350,2013-08-22 19:55:00
4:15 PM,69.8,68.0,94,30.13,7.0,NNW,8.1,18.4,0.01,Rain,Light Rain,340,2013-08-22 20:15:00
4:35 PM,69.8,68.0,94,30.12,10.0,NNW,5.8,-,0.01,,Overcast,340,2013-08-22 20:35:00
4:55 PM,69.8,68.0,94,30.12,10.0,NNW,4.6,-,0.01,,Mostly Cloudy,330,2013-08-22 20:55:00
5:15 PM,69.8,68.0,94,30.09,10.0,North,4.6,-,N/A,,Mostly Cloudy,360,2013-08-22 21:15:00
5:35 PM,71.6,66.2,83,30.08,10.0,Calm,Calm,-,N/A,Rain,Light Rain,0,2013-08-22 21:35:00
5:55 PM,71.6,68.0,88,30.07,10.0,ESE,3.5,-,N/A,,Clear,110,2013-08-22 21:55:00
6:15 PM,71.6,68.0,88,30.05,10.0,SSE,5.8,-,N/A,,Clear,150,2013-08-22 22:15:00
6:35 PM,69.8,66.2,88,30.04,10.0,South,5.8,-,N/A,,Clear,170,2013-08-22 22:35:00
6:55 PM,71.6,68.0,88,30.04,10.0,South,5.8,-,N/A,,Clear,170,2013-08-22 22:55:00
7:15 PM,71.6,66.2,83,30.05,10.0,South,3.5,-,N/A,,Clear,180,2013-08-22 23:15:00
7:35 PM,69.8,66.2,88,30.05,10.0,Calm,Calm,-,N/A,,Clear,0,2013-08-22 23:35:00
7:55 PM,69.8,68.0,94,30.06,10.0,Calm,Calm,-,N/A,,Clear,0,2013-08-22 23:55:00
8:15 PM,68.0,66.2,94,30.06,7.0,Calm,Calm,-,N/A,,Clear,0,2013-08-23 00:15:00
8:35 PM,68.0,66.2,94,30.05,7.0,Calm,Calm,-,N/A,,Clear,0,2013-08-23 00:35:00
8:55 PM,68.0,64.4,88,30.05,4.0,NNE,3.5,-,N/A,,Scattered Clouds,20,2013-08-23 00:55:00
9:15 PM,68.0,64.4,88,30.08,4.0,NW,3.5,-,N/A,,Clear,320,2013-08-23 01:15:00
9:35 PM,68.0,66.2,94,30.10,7.0,NNW,6.9,-,N/A,,Mostly Cloudy,330,2013-08-23 01:35:00
9:55 PM,68.0,66.2,94,30.11,10.0,NNW,3.5,-,N/A,,Mostly Cloudy,340,2013-08-23 01:55:00
10:15 PM,68.0,64.4,88,30.11,10.0,NNW,3.5,-,N/A,,Scattered Clouds,330,2013-08-23 02:15:00
10:35 PM,66.2,64.4,94,30.11,10.0,NW,3.5,-,N/A,,Clear,320,2013-08-23 02:35:00
10:55 PM,66.2,64.4,94,30.11,10.0,NNW,3.5,-,N/A,,Clear,340,2013-08-23 02:55:00
11:15 PM,64.4,64.4,100,30.11,10.0,NW,3.5,-,N/A,,Scattered Clouds,320,2013-08-23 03:15:00
11:35 PM,64.4,64.4,100,30.11,10.0,Calm,Calm,-,N/A,,Clear,0,2013-08-23 03:35:00
11:55 PM,64.4,62.6,94,30.11,7.0,Calm,Calm,-,N/A,,Clear,0,2013-08-23 03:55:00